Location: Pinhead Observatory
(34.4473°N, 118.1985°W)
Time: 02:12:44
(UTC-07:00)

CZ-4C R/B - Visible Passes

Search period start: 02 September 2014 00:00
Search period end: 12 September 2014 00:00
Orbit: 789 x 1213 km, 63.4° (Epoch: 31 August)

Date Brightness Start Highest point End Pass type
(mag) Time Alt. Az. Time Alt. Az. Time Alt. Az.
02 Sep 3.1 19:31:08 10° NNW 19:38:04 57° NE 19:45:30 10° SE visible
02 Sep 4.5 21:20:29 10° NW 21:26:22 28° WSW 21:32:31 10° SSW visible
03 Sep 3.1 20:04:41 10° NW 20:11:47 72° WSW 20:19:21 10° SSE visible
03 Sep 5.4 21:58:01 10° W 21:59:29 11° WSW 22:00:59 10° WSW visible
04 Sep 4.3 20:38:55 10° NW 20:45:15 34° WSW 20:51:52 10° S visible
05 Sep 3.0 19:23:26 10° NNW 19:30:34 86° WSW 19:38:12 10° SSE visible
05 Sep 5.3 21:14:53 10° WNW 21:18:26 14° WSW 21:22:03 10° SW visible
06 Sep 4.2 19:57:28 10° NW 20:04:06 41° WSW 20:11:05 10° S visible
07 Sep 5.3 20:32:44 10° WNW 20:37:21 18° WSW 20:42:07 10° SSW visible
09 Sep 5.2 19:50:53 10° WNW 19:56:15 23° WSW 20:01:50 10° SSW visible
